This demonstration page uses our WeatherBlox Daily Observations layout. Learn more.

Left ArrowRight Arrow

36.17497, -115.13722

Hourly Observations for September 13, 2016

Temp ( °F °C ) Dew Point ( °F °C ) Humidity (%) Winds ( mph kmh ) Pressure ( in mb ) Visibility ( mi km ) Precip ( " mm )
12:53 am 00:53 Clear 78 25.6 39 3.9 25 25 SW 21 33 29.67 1005 10 16.0934 0 0
1:53 am 01:53 Clear 77 25 39 3.9 26 26 SW 16 26 29.68 1005 10 16.0934 0 0
2:53 am 02:53 Clear 76 24.4 40 4.4 27 27 SSW 15 24 29.69 1006 10 16.0934 0 0
3:53 am 03:53 Clear 75 23.9 39 3.9 27 27 SW 12 19 29.69 1006 10 16.0934 0 0
4:53 am 04:53 Clear 73 22.8 39 3.9 29 29 S 16 26 29.7 1006 10 16.0934 0 0
5:53 am 05:53 Clear 73 22.8 39 3.9 29 29 SSW 9 15 29.71 1006 10 16.0934 0 0
6:53 am 06:53 Sunny 73 22.8 38 3.3 28 28 S 10 17 29.74 1007 10 16.0934 0 0
7:53 am 07:53 Sunny 75 23.9 37 2.8 25 25 S 15 24 29.75 1008 10 16.0934 0 0
8:53 am 08:53 Sunny 78 25.6 35 1.7 21 21 SSW 20 31 29.75 1007 10 16.0934 0 0
9:53 am 09:53 Sunny 81 27.2 35 1.7 19 19 SSW 18 30 29.76 1008 10 16.0934 0 0
10:53 am 10:53 Sunny 82 27.8 33 0.6 17 17 SSW 14 22 29.77 1008 10 16.0934 0 0
11:53 am 11:53 Sunny 84 28.9 33 0.6 16 16 SW 14 22 29.76 1008 10 16.0934 0 0
12:53 pm 12:53 Sunny 86 30 32 0 14 14 SSW 17 28 29.74 1007 10 16.0934 0 0
1:53 pm 13:53 Sunny 87 30.6 31 -0.6 13 13 WSW 20 31 29.72 1006 10 16.0934 0 0
2:53 pm 14:53 Sunny 87 30.6 31 -0.6 13 13 WSW 20 31 29.71 1006 10 16.0934 0 0
3:53 pm 15:53 Sunny 86 30 33 0.6 15 15 SW 18 30 29.71 1006 10 16.0934 0 0
4:53 pm 16:53 Sunny 84 28.9 35 1.7 17 17 WSW 22 35 29.71 1006 10 16.0934 0 0
5:53 pm 17:53 Sunny 82 27.8 36 2.2 19 19 WSW 22 35 29.73 1007 10 16.0934 0 0
6:53 pm 18:53 Clear 79 26.1 37 2.8 22 22 WSW 15 24 29.75 1007 10 16.0934 0 0
7:53 pm 19:53 Clear 77 25 30 -1.1 18 18 W 15 24 29.79 1009 10 16.0934 0 0
8:53 pm 20:53 Clear 75 23.9 27 -2.8 17 17 WSW 8 13 29.83 1010 10 16.0934 0 0
9:53 pm 21:53 Clear 73 22.8 25 -3.9 17 17 S 16 26 29.83 1010 10 16.0934 0 0
10:53 pm 22:53 Clear 72 22.2 30 -1.1 21 21 SSW 13 20 29.86 1011 10 16.0934 0 0
11:53 pm 23:53 Clear 70 21.1 33 0.6 26 26 SW 9 15 29.88 1012 10 16.0934 0 0

Powered by AerisWeather